District 4 2A Girls Championships L




10/25/2018
3.1 Miles

Click for Age Graded Results   


PlaceLast NameAgeGenderCityStateTimePaceCATAge PlaceGender PlaceClubCR
1 Amelia Pullen 0FWashougal 00:18:250:05:56F111 
2 Allyson Peterson 0FHockinson 00:19:420:06:21F122 
3 Savea Mansfield 0FWashougal 00:20:260:06:35F133 
4 Lydia Jack 0FTumwater 00:20:390:06:40F144 
5 Jane Kuebrich 0FRidgefield 00:20:400:06:40F155 
6 Taylor Kopp 0FHockinson 00:21:050:06:48F166 
7 Hannah Reynolds 0FBlack Hills 00:21:090:06:49F177 
8 Kierrla Yates 0FR A Long 00:21:130:06:51F188 
9 Ashley Hunter 0FRidgefield 00:21:140:06:51F199 
10 Maggie Wood-richardson 0FBlack Hills 00:21:160:06:52F11010 
11 Marissa Bulder 0FHockinson 00:21:270:06:55F11111 
12 Miranda Lomax 0FR A Long 00:21:280:06:55F11212 
13 Makayla Erickson 0FCentralia 00:21:360:06:58F11313 
14 Ellie Ritter 0FHockinson 00:21:410:06:59F11414 
15 Abby Orman 0FHockinson 00:21:440:07:01F11515 
16 Meryl Keeler 0FWashougal 00:21:460:07:01F11616 
17 Ashley Vega 0FRidgefield 00:21:470:07:02F11717 
18 Lauren Kaiser 0FWoodland 00:21:500:07:02F11818 
19 Lucia Ianello 0FColumbia River 00:22:040:07:07F11919 
20 Hanna Dyer 0FColumbia River 00:22:050:07:07F12020 
21 Adyson Dyer 0FHockinson 00:22:060:07:08F12121 
22 Julia Zora 0FHockinson 00:22:070:07:08F12222 
23 Brooklyn Bausch 0FWashougal 00:22:110:07:09F12323 
24 Skyler Taylor 0FAberdeen 00:22:120:07:10F12424 
25 Grace Goode 0FRidgefield 00:22:130:07:10F12525 
26 Makenna John 0FColumbia River 00:22:200:07:12F12626 
27 Brynna Rooklidge 0FCentralia 00:22:290:07:15F12727 
28 Annabelle Palmer 0FWashougal 00:22:320:07:16F12828 
29 Camdyn Hamilton 0FTumwater 00:22:400:07:19F12929 
30 Lillian Gow 0FTumwater 00:22:480:07:21F13030 
31 Savannah Johnston 0FW F West 00:22:530:07:23F13131 
32 Paige Maas 0FWashougal 00:22:560:07:24F13332 
33 Olivia Myers 0FTumwater 00:22:560:07:24F13233 
34 Shanley Olson 0FTumwater 00:22:580:07:25F13434 
35 Ariel Griffith 0FRidgefield 00:23:100:07:28F13535 
36 Clara Best 0FWashougal 00:23:110:07:29F13636 
37 Mia Casler 0FBlack Hills 00:23:190:07:31F13737 
38 Sara Bocksch 0FTumwater 00:23:220:07:32F13838 
39 Madison Pittman 0FR A Long 00:23:240:07:33F13939 
40 Caitlin Kong 0FRidgefield 00:23:240:07:33F14040 
41 Mayri Orellana 0FAberdeen 00:23:280:07:34F14141 
42 Olivia Fitzgerald 0FMark Morris 00:23:320:07:35F14242 
43 Eva Hanes 0FColumbia River 00:23:350:07:36F14343 
44 Xylia Warner 0FW F West 00:23:460:07:40F14444 
45 Hazel Belknap 0FRochester 00:23:470:07:40F14545 
46 Riley Johnston 0FW F West 00:23:530:07:42F14646 
47 Annika Mccarty 0FWoodland 00:23:570:07:44F14747 
48 Kellie Nguyen 0FRidgefield 00:23:590:07:44F14848 
49 Janna Knight 0FTumwater 00:24:020:07:45F14949 
50 Isabel Carleton 0FR A Long 00:24:140:07:49F15050 
51 Lindsey Bell 0FColumbia River 00:24:340:07:55F15151 
52 Gabriella Holman 0FRochester 00:24:350:07:56F15252 
53 Tawnee Craig 0FCentralia 00:24:370:07:56F15353 
54 Kensley Crabtree 0FColumbia River 00:24:380:07:57F15454 
55 Chloe Jones 0FMark Morris 00:24:580:08:03F15555 
56 Lizeth Rodriguez 0FRochester 00:25:070:08:06F15656 
57 Lydia Briggs 0FW F West 00:25:310:08:14F15757 
58 Mercy Johnson 0FAberdeen 00:25:380:08:16F15858 
59 Kacie Powell 0FAberdeen 00:25:450:08:19F15959 
60 Rebecca Wall 0FBlack Hills 00:25:510:08:20F16060 
61 Cadence Edminster 0FW F West 00:26:020:08:24F16161 
62 Hailey King 0FMark Morris 00:26:040:08:24F16362 
63 Josie Boultinghouse 0FMark Morris 00:26:040:08:25F16263 
64 Nelly Ramirez 0FR A Long 00:26:050:08:25F16464 
65 Miriam Martinez 0FCentralia 00:26:110:08:27F16565 
66 Ciera Skelly 0FAberdeen 00:26:220:08:30F16666 
67 Maddie Morgan 0FColumbia River 00:26:240:08:31F16767 
68 Rachel Tracy 0FWoodland 00:26:300:08:33F16868 
69 Kendra Sutton 0FCentralia 00:26:400:08:36F16969 
70 Mabel Imboden 0FW F West 00:27:280:08:52F17070 
71 Tesha Watkins-teske 0FAberdeen 00:27:480:08:58F17171 
72 Abby Councilman 0FAberdeen 00:28:000:09:02F17272 
73 Marlene Jacobs 0FWoodland 00:28:260:09:10F17373 
74 Brynn Wronkowski 0FR A Long 00:28:280:09:11F17474 
75 Cassidy Bonser 0FMark Morris 00:28:370:09:14F17575 
76 Leah Riley 0FWoodland 00:29:170:09:27F17676 
77 Rylee Musser 0FWoodland 00:29:180:09:27F17777 
78 Lena Carleton 0FR A Long 00:34:050:10:59F17878 
1

Race List    Reports    Home



Click Here for a complete race list

If you have any suggestion, comments, corrections or if you want your name removed from the database, Please Email Russ at RaceResults@comcast.net
Be Patient. Corrections can take up to 2 week to process. Most mistakes are caused by sloppy handwriting. Be considerate by always writing neatly on you registration form. It helps you by having correct database results and it helps me by not having to make the corrections.